Overview Statistics Trail Chart Weather Telemetry Raw packets
 

This is the latest recevied weather packets stored in our database for station/object KU4DD. If no packets are shown the sender has not sent any weather packets the latest 10 day(s).

<< 7 8 9 10 11 12 13 >>
Time Temp. Humidity Pressure Rain* Wind** Luminosity Snow
1788259508 23.33° C 97% 1018.3 hPa 0 mm - 0 W/m² -
1788257040 23.33° C 97% 1018.3 hPa 0 mm - 0 W/m² -
1788256100 23.33° C 97% 1017.9 hPa 0 mm - 0 W/m² -
1788255172 23.33° C 97% 1017.9 hPa 0 mm - 0 W/m² -
1788253607 23.33° C 96% 1018.3 hPa 0 mm - 0 W/m² -
1788251756 23.33° C 96% 1018.3 hPa 0 mm - 0 W/m² -
1788244348 24.44° C 94% 1019 hPa 0 mm - 0 W/m² -
1788243108 24.44° C 94% 1019 hPa 0 mm - 0 W/m² -
1788242480 25° C 93% 1019 hPa 0 mm - 0 W/m² -
1788240306 25° C 92% 1019 hPa 0 mm - 0 W/m² -
1788239362 25.56° C 91% 1019.3 hPa 0 mm - 0 W/m² -
1788238117 25.56° C 91% 1019 hPa 0 mm - 0 W/m² -
1788237492 25.56° C 90% 1019 hPa 0 mm - 0 W/m² -
1788235952 26.11° C 90% 1019 hPa 0 mm - 0 W/m² -
1788235334 25.56° C 90% 1019 hPa 0 mm - 0 W/m² -
1788235017 25.56° C 89% 1019 hPa 0 mm - 0 W/m² -
1788232544 26.11° C 86% 1019 hPa 0 mm - 0 W/m² -
1788230388 25.56° C 87% 1018.6 hPa 0 mm - 0 W/m² -
1788228529 25.56° C 85% 1018.6 hPa 0 mm - 0 W/m² -
1788227901 25.56° C 83% 1018.6 hPa 0 mm - 0 W/m² -
1788227588 25.56° C 83% 1018.6 hPa 0 mm - 0 W/m² -
1788225717 26.67° C 81% 1018.3 hPa 0 mm - 0 W/m² -
1788225086 26.67° C 81% 1018.3 hPa 0 mm - 0 W/m² -
1788223849 26.67° C 81% 1017.9 hPa 0 mm - 0 W/m² -
1788222600 27.22° C 79% 1017.9 hPa 0 mm - 0 W/m² -

* Rain latest hour (hover to see other rain measurements)
** Current wind speed in m/s (hover to see current wind gust speed)